Stations météo

réclame
Mon MeteoGroup
Trapani/Birgi, Italie (16429): Température de l'air & dewpoint: 14.07.2018 22:00:00 - 20.07.2018 22:00:00 (CEST)Trapani/Birgi, Italie (16429): Vitesse du vent: 14.07.2018 22:00:00 - 20.07.2018 22:00:00 (CEST)Trapani/Birgi, Italie (16429): Direction du vent: 14.07.2018 22:00:00 - 20.07.2018 22:00:00 (CEST)Trapani/Birgi, Italie (16429): reduced air pressure: 14.07.2018 22:00:00 - 20.07.2018 22:00:00 (CEST)Trapani/Birgi, Italie (16429): visibility: 14.07.2018 22:00:00 - 20.07.2018 22:00:00 (CEST)Trapani/Birgi, Italie (16429): Ensoleillement: 14.07.2018 22:00:00 - 20.07.2018 22:00:00 (CEST)
Date & Time tt [°C] td [°C] ff [km/h] ff [knt] dd ppp [hPa] vv [km] sd [min]
20.07.2018 22:00:00 26,0 20,3 2 1 WNW 1014,1 20 -
20.07.2018 21:00:00 28,0 21,3 9 5 N 1013,3 20 -
20.07.2018 20:00:00 28,6 21,6 13 7 N 1013,3 20 12
20.07.2018 19:00:00 29,0 22,5 18 10 NNW 1013,3 25 60
20.07.2018 18:00:00 30,0 21,9 22 12 N 1013,3 25 60
20.07.2018 17:00:00 31,0 21,8 21 11 N 1013,5 25 60
20.07.2018 16:00:00 30,4 21,8 24 13 N 1013,9 25 60
20.07.2018 15:00:00 30,4 22,6 24 13 N 1013,9 25 60
20.07.2018 14:00:00 30,0 23,7 24 13 N 1014,6 25 60
20.07.2018 13:00:00 28,0 24,2 22 12 NNW 1014,7 25 60
20.07.2018 12:00:00 28,0 23,8 24 13 NNW 1014,8 25 60
20.07.2018 11:00:00 27,4 23,2 21 11 NNW 1014,9 25 60
20.07.2018 10:00:00 27,4 22,4 15 8 NNW 1014,8 25 60
20.07.2018 09:00:00 26,4 22,7 15 8 N 1014,7 25 60
20.07.2018 08:00:00 22,6 20,9 2 1 N 1014,6 25 60
20.07.2018 07:00:00 19,2 17,2 5 3 E 1014,2 20 6
20.07.2018 06:00:00 19,2 17,0 5 3 ESE 1014,1 20 -
20.07.2018 05:00:00 19,4 17,0 5 3 ESE 1014,1 15 -
20.07.2018 04:00:00 20,4 18,4 8 4 SE 1014,1 15 -
20.07.2018 03:00:00 23,0 21,3 4 2 N 1013,9 15 -
20.07.2018 02:00:00 23,0 21,3 4 2 N 1014,1 15 -
20.07.2018 01:00:00 25,0 23,2 9 5 NNW 1014,1 15 -
20.07.2018 00:00:00 25,0 23,2 8 4 NW 1014,1 15 -
19.07.2018 23:00:00 25,2 23,4 5 3 N 1014,1 15 -
19.07.2018 22:00:00 26,2 24,2 11 6 NNW 1014,0 15 -
19.07.2018 21:00:00 27,0 24,1 13 7 NNW 1013,4 20 -
19.07.2018 20:00:00 27,4 24,3 11 6 NW 1013,4 20 12
19.07.2018 19:00:00 29,0 23,2 13 7 W 1013,3 20 60
19.07.2018 18:00:00 31,0 17,7 15 8 SW 1013,4 20 60
19.07.2018 17:00:00 31,2 17,5 18 10 SW 1013,8 20 60
19.07.2018 16:00:00 32,0 18,2 21 11 SSW 1013,9 20 60
19.07.2018 15:00:00 33,0 16,4 29 16 SW 1013,8 20 60
19.07.2018 14:00:00 34,0 15,9 24 13 SW 1013,8 20 60
19.07.2018 13:00:00 34,0 13,5 21 11 S 1014,1 20 60
19.07.2018 12:00:00 33,2 14,8 16 9 SSE 1014,1 20 60
19.07.2018 11:00:00 31,0 15,4 16 9 SSW 1014,1 20 60
19.07.2018 10:00:00 29,4 14,0 13 7 SSE 1014,1 20 60
19.07.2018 09:00:00 26,0 16,0 9 5 SSE 1014,1 20 48
19.07.2018 08:00:00 21,6 15,9 8 4 ESE 1013,8 20 -
19.07.2018 07:00:00 19,0 16,0 5 3 SSE 1013,8 18 -
19.07.2018 06:00:00 19,0 16,4 8 4 S 1013,7 15 -
19.07.2018 05:00:00 21,2 14,6 2 1 E 1013,1 12 -
19.07.2018 04:00:00 19,0 16,4 5 3 NE 1013,7 12 -
19.07.2018 03:00:00 20,0 18,3 5 3 E 1014,8 12 -
19.07.2018 02:00:00 20,0 18,3 5 3 E 1014,8 12 -
19.07.2018 01:00:00 21,0 18,9 4 2 ENE 1014,9 12 -
19.07.2018 00:00:00 22,0 20,3 5 3 NNE 1014,9 12 -
18.07.2018 23:00:00 23,0 20,5 8 4 N 1015,0 12 -
18.07.2018 22:00:00 24,0 22,3 5 3 NNE 1014,6 12 -
18.07.2018 21:00:00 25,2 23,4 9 5 N 1014,6 15 -
18.07.2018 20:00:00 26,0 24,2 18 10 NNW 1014,8 18 -
18.07.2018 19:00:00 27,2 24,1 22 12 NNW 1014,6 18 60
18.07.2018 18:00:00 27,6 24,5 24 13 NNW 1014,7 20 60
18.07.2018 17:00:00 28,4 24,6 26 14 NNW 1015,0 20 60
18.07.2018 16:00:00 29,2 22,7 26 14 NNW 1015,1 20 60
18.07.2018 15:00:00 28,6 24,0 24 13 NNW 1015,1 25 60
18.07.2018 14:00:00 29,8 21,5 22 12 NNW 1015,1 25 60
18.07.2018 13:00:00 30,0 19,7 22 12 NNW 1015,1 25 60
18.07.2018 12:00:00 31,0 17,0 22 12 N 1015,1 25 60
18.07.2018 11:00:00 30,0 17,5 16 9 N 1015,1 20 60
18.07.2018 10:00:00 29,2 15,4 21 11 N 1015,1 20 60
18.07.2018 09:00:00 26,0 20,8 11 6 NNW 1015,1 15 60
18.07.2018 08:00:00 23,0 20,9 4 2 N 1014,9 12 42
18.07.2018 07:00:00 22,0 20,3 8 4 SE 1014,6 12 -
18.07.2018 06:00:00 23,2 21,5 5 3 E 1014,7 12 -
18.07.2018 05:00:00 24,0 22,3 4 2 NNW 1014,9 12 -
18.07.2018 04:00:00 24,0 22,4 5 3 NNW 1015,0 12 -
18.07.2018 03:00:00 23,8 22,4 5 3 W 1015,0 12 -
18.07.2018 02:00:00 24,0 22,6 8 4 WNW 1015,1 12 -
18.07.2018 01:00:00 23,8 22,8 8 4 W 1015,1 12 -
18.07.2018 00:00:00 24,0 22,6 4 2 W 1015,1 12 -
17.07.2018 23:00:00 25,0 23,2 4 2 N 1015,1 12 -
17.07.2018 22:00:00 25,6 23,7 13 7 NW 1014,9 14 -
17.07.2018 21:00:00 26,0 23,9 9 5 NW 1014,1 12 -
17.07.2018 20:00:00 27,0 24,1 18 10 WNW 1014,2 15 30
17.07.2018 19:00:00 27,8 24,0 26 14 WNW 1014,2 25 60
17.07.2018 18:00:00 28,0 23,2 28 15 WNW 1014,4 25 60
17.07.2018 17:00:00 28,0 22,7 24 13 NW 1014,6 25 60
17.07.2018 16:00:00 28,0 22,0 28 15 NW 1014,4 25 60
17.07.2018 15:00:00 28,8 22,3 31 17 NW 1014,6 10 60
17.07.2018 14:00:00 29,0 22,0 37 20 WNW 1014,4 25 60
17.07.2018 13:00:00 29,0 21,8 37 20 WNW 1014,4 25 60
17.07.2018 12:00:00 28,0 21,1 31 17 WNW 1014,7 25 60
17.07.2018 11:00:00 28,0 18,1 31 17 WNW 1014,3 25 60
17.07.2018 10:00:00 27,2 21,0 29 16 WNW 1013,9 25 60
17.07.2018 09:00:00 26,0 20,8 29 16 W 1013,9 25 60
17.07.2018 08:00:00 25,2 21,3 31 17 WNW 1013,7 25 30
17.07.2018 07:00:00 24,8 22,5 22 12 WNW 1013,9 12 -
17.07.2018 06:00:00 25,0 22,9 16 9 W 1013,8 10 -
17.07.2018 05:00:00 25,2 22,9 26 14 WNW 1013,9 12 -
17.07.2018 04:00:00 25,4 22,7 15 8 W 1013,9 12 -
17.07.2018 03:00:00 25,6 23,5 21 11 W 1014,1 12 -
17.07.2018 02:00:00 25,6 23,7 21 11 W 1014,1 12 -
17.07.2018 01:00:00 25,8 24,0 22 12 SW 1014,1 12 -
17.07.2018 00:00:00 26,4 26,4 9 5 S 1014,4 12 -
16.07.2018 23:00:00 26,6 26,6 18 10 WSW 1014,1 12 -
16.07.2018 22:00:00 27,8 24,4 13 7 SSE 1013,1 14 -
16.07.2018 21:00:00 28,8 25,0 9 5 SE 1012,9 14 -
16.07.2018 20:00:00 28,6 27,2 13 7 E 1013,1 14 18
16.07.2018 19:00:00 29,0 26,6 21 11 N 1014,8 14 60
16.07.2018 18:00:00 30,8 25,9 16 9 NW 1014,3 15 60
16.07.2018 17:00:00 31,2 25,3 11 6 NNW 1014,8 15 60
16.07.2018 16:00:00 30,0 26,8 18 10 NNW 1015,1 15 60
16.07.2018 15:00:00 31,6 24,2 18 10 W 1014,9 20 60
16.07.2018 14:00:00 34,0 26,5 26 14 SSW 1014,1 20 60
16.07.2018 13:00:00 34,8 24,1 16 9 SW 1013,2 20 18
16.07.2018 12:00:00 31,6 22,0 11 6 SSW 1014,0 20 18
16.07.2018 11:00:00 31,0 24,2 21 11 WSW 1015,0 20 60
16.07.2018 10:00:00 32,2 18,8 4 2 N 1014,4 20 60
16.07.2018 09:00:00 27,2 21,7 9 5 E 1015,1 18 60
16.07.2018 08:00:00 23,8 22,8 5 3 N 1015,1 18 36
16.07.2018 07:00:00 21,2 20,5 5 3 NE 1014,5 14 6
16.07.2018 06:00:00 22,0 21,5 4 2 E 1014,3 10 -
16.07.2018 05:00:00 25,2 24,9 0 0 N 1014,5 12 -
16.07.2018 04:00:00 23,6 23,1 0 0 N 1014,5 12 -
16.07.2018 03:00:00 25,2 24,9 11 6 N 1015,2 12 -
16.07.2018 02:00:00 25,0 24,5 9 5 NNW 1015,3 12 -
16.07.2018 01:00:00 25,0 24,7 13 7 NNW 1015,4 12 -
16.07.2018 00:00:00 24,2 23,9 8 4 NNW 1015,2 12 -
15.07.2018 23:00:00 25,4 25,4 9 5 NW 1015,2 12 -
15.07.2018 22:00:00 25,4 24,5 5 3 NW 1014,6 12 -
15.07.2018 21:00:00 27,0 26,1 18 10 N 1014,2 18 0
15.07.2018 20:00:00 27,0 25,2 18 10 N 1014,6 25 54
15.07.2018 19:00:00 28,0 26,2 22 12 N 1014,8 14 48
15.07.2018 18:00:00 28,0 25,8 22 12 NNW 1014,8 14 60
15.07.2018 17:00:00 28,0 25,6 22 12 NNW 1014,9 14 60
15.07.2018 16:00:00 28,2 26,4 18 10 WNW 1014,9 7 60
15.07.2018 15:00:00 28,0 25,8 16 9 NW 1015,0 7 60
15.07.2018 14:00:00 29,6 25,4 21 11 WNW 1015,0 8 60
15.07.2018 13:00:00 29,4 25,2 24 13 WNW 1015,1 8 60
15.07.2018 12:00:00 29,2 25,0 24 13 WNW 1015,2 7 60
15.07.2018 11:00:00 28,6 25,2 21 11 WNW 1015,1 7 36
15.07.2018 10:00:00 27,6 24,7 21 11 W 1015,1 7 24
15.07.2018 09:00:00 26,6 24,5 21 11 WNW 1015,0 7 0
15.07.2018 08:00:00 25,8 24,8 18 10 WNW 1014,6 7 0
15.07.2018 07:00:00 26,0 25,5 16 9 W 1014,3 7 -
15.07.2018 06:00:00 26,0 25,3 16 9 W 1014,2 5 -
15.07.2018 05:00:00 25,8 24,0 15 8 W 1014,2 6 -
15.07.2018 04:00:00 25,8 24,2 8 4 W 1014,7 6 -
15.07.2018 03:00:00 25,8 24,6 11 6 W 1015,4 6 -
15.07.2018 02:00:00 25,8 24,9 8 4 WSW 1016,1 6 -
15.07.2018 01:00:00 25,8 24,9 13 7 WSW 1016,1 6 -
15.07.2018 00:00:00 25,8 24,9 16 9 WSW 1016,1 6 -
14.07.2018 23:00:00 25,4 24,2 15 8 SW 1016,1 7 -
14.07.2018 22:00:00 26,4 25,7 15 8 SW 1016,0 7 -

tt = Température de l'air
td = dewpoint
ff = Vitesse du vent
dd = Direction du vent
ppp = reduced air pressure
vv = visibility
sd = Ensoleillement

stations d'obs. à proximité